Weather History for Torrington, WY

Change the Weather History Date:

Friday, November 30, 2012

  Actual Average Record
Temperature  
Mean Temperature 47 °F 30 °F  
Max Temperature 67 °F 43 °F 67 °F (2012)
Min Temperature 26 °F 17 °F -11 °F (2004)
Degree Days  
Heating Degree Days 18 35  
Month to date heating degree days 717 873  
Since 1 July heating degree days 1343 1583  
Cooling Degree Days 0 0  
Month to date cooling degree days 0 0  
Year to date cooling degree days 1021 678  
Moisture  
Dew Point 24 °F    
Average Humidity 51    
Maximum Humidity 81    
Minimum Humidity 20    
Precipitation  
Precipitation 0.00 in 0.01 in 0.05 in (2003)
Month to date precipitation 0.09 0.44  
Year to date precipitation 7.00 13.84  
Sea Level Pressure  
Sea Level Pressure 29.88 in    
Wind  
Wind Speed 7 mph (South)    
Max Wind Speed 18 mph    
Max Gust Speed 23 mph    
Visibility 10 miles    
Events      
T = Trace of Precipitation, MM = Missing Value Source: NWS Daily Summary

Daily Weather History Graph

Daily Weather History Graph

Search for Another Location

Airport:

Trip Planner

Search our weather history database for the weather conditions in past years. The results will help you decide how hot, cold, wet, or windy it might be!

Date:

Astronomy

Nov. 30, 2012 Rise Set
Actual Time 7:04 AM MST 4:26 PM MST
Civil Twilight 6:33 AM MST 4:57 PM MST
Nautical Twilight 5:58 AM MST 5:31 PM MST
Astronomical Twilight 5:25 AM MST 6:05 PM MST
Moon 6:23 PM MST 8:38 AM MST
Length of Visible Light 10h 23m
Length of Day
9h 21m
Waning Gibbous, 96% of the Moon is Illuminated
Nov 30
Waning Gibbous
Dec 6
Last Quarter
Dec 13
New
Dec 19
First Quarter
Dec 28
Full

Hourly Weather History & Observations

Time (MST) Temp. Windchill Dew Point Humidity Pressure Visibility Wind Dir Wind Speed Gust Speed Precip Events Conditions
12:53 AM 30.0 °F 24.1 °F 23.0 °F 75% 30.00 in 10.0 mi SE 5.8 mph - N/A   Clear
1:53 AM 34.0 °F 31.0 °F 21.9 °F 61% 29.98 in 10.0 mi SE 3.5 mph - N/A   Clear
2:53 AM 30.9 °F 26.2 °F 23.0 °F 72% 29.99 in 10.0 mi Variable 4.6 mph - N/A   Clear
3:53 AM 28.0 °F 19.3 °F 21.9 °F 78% 29.98 in 10.0 mi ENE 9.2 mph - N/A   Clear
4:53 AM 30.0 °F 22.4 °F 23.0 °F 75% 30.00 in 10.0 mi ESE 8.1 mph - N/A   Clear
5:53 AM 30.0 °F 24.1 °F 23.0 °F 75% 30.00 in 10.0 mi ESE 5.8 mph - N/A   Partly Cloudy
6:53 AM 36.0 °F 29.0 °F 23.0 °F 59% 30.01 in 10.0 mi SSE 9.2 mph - N/A   Clear
7:53 AM 37.0 °F 32.4 °F 24.1 °F 59% 30.03 in 10.0 mi East 5.8 mph - N/A   Clear
8:53 AM 44.1 °F 39.5 °F 25.0 °F 47% 30.00 in 10.0 mi SE 8.1 mph - N/A   Clear
9:53 AM 53.1 °F - 27.0 °F 37% 29.98 in 10.0 mi SE 9.2 mph - N/A   Clear
10:53 AM 61.0 °F - 24.1 °F 24% 29.90 in 10.0 mi South 15.0 mph - N/A   Clear
11:53 AM 63.0 °F - 23.0 °F 22% 29.86 in 10.0 mi South 16.1 mph - N/A   Clear
12:53 PM 66.0 °F - 25.0 °F 21% 29.80 in 10.0 mi SSW 9.2 mph - N/A   Clear
1:33 PM 64.4 °F - 26.6 °F 24% 29.82 in 10.0 mi WSW 13.8 mph 23.0 mph N/A   Clear
1:53 PM 64.0 °F - 27.0 °F 25% 29.78 in 10.0 mi SW 11.5 mph - N/A   Clear
2:53 PM 60.1 °F - 27.0 °F 28% 29.78 in 10.0 mi North 4.6 mph - N/A   Clear
3:53 PM 55.9 °F - 27.0 °F 33% 29.79 in 10.0 mi Calm Calm - N/A   Clear
5:53 PM 55.0 °F - 21.9 °F 28% 29.80 in 10.0 mi SSW 4.6 mph - N/A   Clear
6:53 PM 48.0 °F - 23.0 °F 37% 29.80 in 10.0 mi SE 6.9 mph - N/A   Clear
7:53 PM 48.0 °F - 24.1 °F 39% 29.78 in 10.0 mi SW 3.5 mph - N/A   Clear
8:53 PM 46.0 °F 43.1 °F 24.1 °F 42% 29.78 in 10.0 mi West 5.8 mph - N/A   Clear
9:53 PM 48.0 °F - 26.1 °F 42% 29.75 in 10.0 mi WNW 8.1 mph - N/A   Clear
11:53 PM 52.0 °F - 28.0 °F 40% 29.71 in 10.0 mi WNW 5.8 mph - N/A   Clear